GW0068 Weather Reports


time (UTC)temp
C
wind
direction
speed
KPH
gust
KPH
rain 1hr
cm
rain 24hr
cm
rain mn
cm
humidity
%
barometer
mb
20260504193040 27 208 1.6 12.9 0.00 0.08 0.00 84 1014.0
20260504192521 27 288 4.8 20.9 0.00 0.08 0.00 83 1014.1
20260504192017 27 257 4.8 20.9 0.00 0.08 0.00 82 1014.0
20260504191539 27 311 4.8 14.5 0.00 0.08 0.00 80 1014.1
20260504191025 28 330 3.2 12.9 0.00 0.08 0.00 79 1014.3
20260504190522 29 66 3.2 9.7 0.00 0.08 0.00 78 1014.4
20260504190038 30 280 1.6 9.7 0.00 0.08 0.00 77 1014.3
20260504185521 30 212 1.6 9.7 0.00 0.08 0.00 78 1014.2
20260504185022 30 85 0.0 9.7 0.00 0.08 0.00 75 1014.2
20260504184535 30 185 3.2 9.7 0.00 0.08 0.00 78 1014.2
20260504184019 30 209 3.2 11.3 0.00 0.08 0.00 76 1014.2
20260504183522 30 263 1.6 11.3 0.00 0.08 0.00 76 1014.3
20260504183040 31 200 1.6 11.3 0.00 0.08 0.00 74 1014.3
20260504182521 31 89 1.6 11.3 0.00 0.08 0.00 72 1014.3
20260504182018 31 57 1.6 12.9 0.00 0.08 0.00 74 1014.4
20260504181540 31 200 1.6 14.5 0.00 0.08 0.00 73 1014.5
20260504181024 31 257 4.8 14.5 0.00 0.08 0.00 73 1014.4
20260504180518 31 252 1.6 9.7 0.00 0.08 0.00 74 1014.4
20260504180039 31 191 3.2 8.0 0.00 0.08 0.00 74 1014.5
20260504175520 31 63 3.2 6.4 0.00 0.08 0.00 74 1014.5
20260504175021 31 202 1.6 12.9 0.00 0.08 0.00 74 1014.6
20260504174539 31 0 1.6 12.9 0.00 0.08 0.00 73 1014.7
20260504174022 31 55 1.6 8.0 0.00 0.08 0.00 72 1014.7
20260504173521 31 217 1.6 11.3 0.00 0.08 0.00 73 1014.9
20260504173041 31 0 3.2 11.3 0.00 0.08 0.00 74 1014.9
20260504172522 31 132 1.6 16.1 0.00 0.08 0.00 76 1014.8
20260504172022 31 194 3.2 16.1 0.00 0.08 0.00 74 1014.8
20260504171539 31 120 3.2 11.3 0.00 0.08 0.00 75 1014.9
20260504171024 31 263 3.2 11.3 0.00 0.08 0.00 73 1014.7
20260504170521 31 167 1.6 8.0 0.00 0.08 0.00 75 1014.7
20260504151022 30 231 1.6 9.7 0.00 0.08 0.00 78 1015.1
20260504150520 30 181 3.2 9.7 0.00 0.08 0.00 78 1015.2
20260504141020 30 61 0.0 4.8 0.00 0.08 0.00 75 1014.9
20260504140521 30 184 1.6 6.4 0.00 0.08 0.00 76 1014.8
20260504130523 27 0 0.0 3.2 0.00 0.08 0.00 84 1014.5
20260504110521 23 0 0.0 0.0 0.00 0.08 0.00 93 1013.6
20260504100520 24 0 0.0 0.0 0.00 0.08 0.00 92 1013.7
20260504081535 25 0 0.0 0.0 0.00 0.08 0.00 90 1013.4
20260504081023 25 0 0.0 0.0 0.00 0.08 0.00 89 1013.3
20260504080523 25 0 0.0 0.0 0.00 0.08 0.00 89 1013.4
20260504050522 27 230 0.0 3.2 0.00 0.08 0.00 83 1015.2
20260504045522 27 0 0.0 3.2 0.00 0.08 0.08 82 1015.3
20260504045022 27 0 0.0 6.4 0.00 0.08 0.08 82 1015.3
20260504044540 27 0 1.6 6.4 0.00 0.08 0.08 82 1015.3
20260504044023 27 0 0.0 3.2 0.00 0.08 0.08 83 1015.3
20260504043522 27 169 0.0 8.0 0.00 0.08 0.08 83 1015.3
20260504043048 27 79 0.0 8.0 0.00 0.08 0.08 83 1015.4
20260504042521 27 0 0.0 8.0 0.00 0.08 0.08 83 1015.3
20260504042021 27 201 0.0 3.2 0.00 0.08 0.08 83 1015.4
20260504041546 27 0 0.0 3.2 0.00 0.08 0.08 83 1015.5
20260504041023 27 311 0.0 3.2 0.00 0.08 0.08 84 1015.5
20260504040522 27 0 0.0 3.2 0.00 0.08 0.08 84 1015.6
20260504040048 27 0 0.0 3.2 0.00 0.08 0.08 84 1015.7
20260504035523 27 265 0.0 1.6 0.00 0.08 0.08 84 1015.7
20260504035023 27 0 0.0 1.6 0.00 0.08 0.08 83 1015.9
20260504034547 27 0 0.0 1.6 0.00 0.08 0.08 83 1015.8
20260504034022 27 0 0.0 1.6 0.00 0.08 0.08 83 1016.0
20260504033525 27 259 0.0 1.6 0.00 0.08 0.08 83 1015.9
20260504033040 27 0 0.0 3.2 0.00 0.08 0.08 83 1015.9
20260504032522 27 0 0.0 3.2 0.00 0.08 0.08 83 1015.9
20260504032024 27 0 0.0 1.6 0.00 0.08 0.08 83 1015.9
20260504031536 27 0 0.0 1.6 0.00 0.08 0.08 83 1015.9
20260504031021 27 0 0.0 1.6 0.00 0.08 0.08 83 1016.1
20260504030522 27 0 0.0 1.6 0.00 0.08 0.08 83 1016.0
20260504030043 27 0 0.0 1.6 0.00 0.08 0.08 83 1015.8
20260504025523 27 0 0.0 1.6 0.00 0.08 0.08 83 1015.9
20260504025023 27 0 0.0 3.2 0.00 0.08 0.08 83 1015.9
20260504024547 27 0 0.0 3.2 0.00 0.08 0.08 82 1016.0
20260504024022 27 0 0.0 6.4 0.00 0.08 0.08 82 1015.9
20260504023522 27 0 0.0 6.4 0.00 0.08 0.08 82 1015.9
20260504023040 27 229 0.0 3.2 0.00 0.08 0.08 82 1015.7
20260504022522 27 0 0.0 1.6 0.00 0.08 0.08 82 1015.7
20260504022021 27 0 0.0 1.6 0.00 0.08 0.08 82 1015.7
20260504021539 27 0 0.0 1.6 0.00 0.08 0.08 82 1015.7
20260504021021 27 0 0.0 1.6 0.00 0.08 0.08 83 1015.5
20260504020520 27 0 0.0 1.6 0.00 0.08 0.08 83 1015.4
20260504020124 27 0 0.0 3.2 0.00 0.08 0.08 82 1015.3
20260504015521 27 0 0.0 3.2 0.00 0.08 0.08 82 1015.3
20260504015022 27 0 0.0 3.2 0.00 0.08 0.08 82 1015.3
20260504014545 27 0 0.0 3.2 0.00 0.08 0.08 82 1015.2
20260504014021 27 206 0.0 3.2 0.00 0.08 0.08 82 1015.1
20260504013521 27 0 0.0 8.0 0.00 0.08 0.08 82 1015.0
20260504013055 27 206 0.0 8.0 0.00 0.08 0.08 82 1014.7
20260504012521 27 207 0.0 8.0 0.00 0.08 0.08 82 1014.5
20260504012021 27 236 0.0 3.2 0.00 0.08 0.08 82 1014.4
20260504011539 27 114 0.0 3.2 0.00 0.08 0.08 82 1014.5
20260504011022 27 182 0.0 4.8 0.00 0.08 0.08 82 1014.5
20260504010522 27 0 0.0 4.8 0.00 0.08 0.08 81 1014.4
20260504010048 27 190 0.0 3.2 0.00 0.08 0.08 81 1014.4
20260504005522 27 0 0.0 4.8 0.00 0.08 0.08 82 1014.3
20260504005022 27 257 0.0 4.8 0.00 0.08 0.08 82 1014.4
20260504004541 27 103 0.0 3.2 0.00 0.08 0.08 83 1014.4
20260504004020 27 0 0.0 4.8 0.00 0.08 0.08 83 1014.2
20260504003520 27 0 0.0 4.8 0.00 0.08 0.08 83 1014.2
20260504003041 27 0 0.0 3.2 0.00 0.08 0.08 83 1014.1
20260504002521 27 0 0.0 3.2 0.00 0.08 0.08 83 1014.1
20260504002020 27 193 0.0 4.8 0.00 0.08 0.08 83 1014.1
20260504001546 27 0 0.0 6.4 0.00 0.08 0.08 83 1014.0
20260504001020 27 0 0.0 6.4 0.00 0.08 0.08 83 1013.8
20260504000526 27 224 0.0 6.4 0.00 0.08 0.08 83 1013.7
20260504000037 27 0 0.0 6.4 0.00 0.08 0.08 82 1013.7
20260503235522 28 204 0.0 8.0 0.00 0.08 0.08 82 1013.7
20260503235022 28 188 1.6 8.0 0.00 0.08 0.08 82 1013.7
20260503234543 28 0 0.0 11.3 0.00 0.08 0.08 82 1013.5
20260503234022 28 0 0.0 11.3 0.00 0.08 0.08 82 1013.4
20260503233522 28 181 0.0 6.4 0.00 0.08 0.08 82 1013.3
20260503233044 28 221 1.6 3.2 0.00 0.08 0.08 82 1013.2
20260503232520 28 0 0.0 3.2 0.00 0.08 0.08 82 1013.3
20260503232020 28 61 1.6 3.2 0.00 0.08 0.08 81 1013.4
20260503231541 28 0 0.0 4.8 0.00 0.08 0.08 81 1013.3
20260503231022 28 156 1.6 8.0 0.00 0.08 0.08 81 1013.4
20260503230522 28 5 0.0 8.0 0.00 0.08 0.08 81 1013.4
20260503230043 28 240 1.6 4.8 0.00 0.08 0.08 81 1013.4
20260503225522 28 0 0.0 4.8 0.00 0.08 0.08 82 1013.3
20260503225021 28 0 0.0 4.8 0.00 0.08 0.08 82 1013.4
20260503224537 28 245 1.6 4.8 0.00 0.08 0.08 82 1013.3
20260503224021 29 196 1.6 4.8 0.00 0.08 0.08 82 1013.4
20260503223521 28 0 0.0 6.4 0.00 0.08 0.08 82 1013.4
20260503223042 29 0 1.6 6.4 0.00 0.08 0.08 82 1013.3
20260503222521 29 0 0.0 4.8 0.00 0.08 0.08 82 1013.3
20260503222020 29 67 1.6 11.3 0.00 0.08 0.08 82 1013.4
20260503221551 29 0 0.0 11.3 0.00 0.08 0.08 81 1013.4
20260503221019 29 221 1.6 9.7 0.00 0.08 0.08 82 1013.5
20260503220520 30 86 1.6 9.7 0.00 0.08 0.08 81 1013.4
20260503220040 30 75 1.6 6.4 0.00 0.08 0.08 82 1013.5
20260503215520 29 184 1.6 6.4 0.00 0.08 0.08 81 1013.5
20260503215019 29 88 1.6 6.4 0.05 0.08 0.08 82 1013.5
20260503214540 29 0 1.6 8.0 0.08 0.08 0.08 81 1013.6
20260503214024 30 0 1.6 8.0 0.08 0.08 0.08 82 1013.6
20260503213519 29 109 1.6 6.4 0.08 0.08 0.08 83 1013.4
20260503213045 29 92 1.6 6.4 0.08 0.08 0.08 84 1013.4
20260503212523 28 76 1.6 9.7 0.08 0.08 0.08 85 1013.5
20260503212019 29 186 0.0 11.3 0.08 0.08 0.08 84 1013.6
20260503211541 29 202 1.6 11.3 0.08 0.08 0.08 85 1013.6
20260503211020 29 213 1.6 11.3 0.08 0.08 0.08 86 1013.6
20260503210521 29 226 1.6 4.8 0.08 0.08 0.08 88 1013.6
20260503210040 29 0 0.0 12.9 0.08 0.08 0.08 86 1013.6
20260503205521 30 159 0.0 12.9 0.08 0.08 0.08 81 1013.6
20260503205020 31 55 3.2 14.5 0.00 0.00 0.00 77 1013.7
20260503204546 31 200 6.4 14.5 0.00 0.00 0.00 75 1013.6
20260503204023 31 222 1.6 14.5 0.00 0.00 0.00 76 1013.6
20260503203524 31 130 3.2 14.5 0.00 0.00 0.00 76 1013.6
20260503203045 31 119 3.2 12.9 0.00 0.00 0.00 75 1013.6
20260503202523 31 188 3.2 11.3 0.00 0.00 0.00 76 1013.6
20260503202024 31 0 1.6 11.3 0.00 0.00 0.00 76 1013.7
20260503201541 31 203 3.2 14.5 0.00 0.00 0.00 75 1013.8
20260503201023 31 198 4.8 17.7 0.00 0.00 0.00 77 1013.8
20260503200523 31 0 1.6 19.3 0.00 0.00 0.00 76 1013.8
20260503200040 31 0 3.2 19.3 0.00 0.00 0.00 75 1013.8
20260503195522 32 323 3.2 9.7 0.00 0.00 0.00 74 1013.9
20260503195020 32 180 3.2 11.3 0.00 0.00 0.00 73 1013.9
20260503194543 31 180 3.2 11.3 0.00 0.00 0.00 74 1013.9
20260503194021 32 0 3.2 12.9 0.00 0.00 0.00 74 1014.0
20260503193520 31 144 1.6 12.9 0.00 0.00 0.00 75 1014.0